SCP
0 0 0 1 1 0 0 0 0 0 0 0 0 0 0 0 0 0 0 0 0 0 0 0 0 0 0 0 1 0 0 0
0 0 0 1 1 1 0 0 0 0 0 0 0 0 0 0 0 0 0 0 0 0 0 0 0 0 0 1 1 0 0 0
0 0 0 0 1 0 0 0 0 0 0 0 0 0 0 0 0 0 0 0 0 0 0 0 0 1 1 1 1 1 0 1
0 0 0 0 0 0 0 0 0 0 0 0 0 0 0 0 0 0 0 0 0 0 0 0 0 1 1 1 1 0 0 0
0 0 0 0 0 0 0 0 0 0 0 0 0 0 0 0 0 0 0 0 0 0 0 0 0 1 1 1 1 0 1 0
0 0 0 0 0 0 0 0 0 0 0 0 0 0 0 0 0 0 0 0 0 0 0 0 0 1 1 1 1 1 1 0
0 0 0 0 0 0 0 0 0 0 0 0 0 0 0 0 0 0 0 0 0 0 0 0 0 1 1 1 1 1 0 0
0 0 0 0 0 0 0 0 0 0 0 0 -0 -0 -0 0 0 0 0 0 0 0 0 0 0 1 1 1 1 0 0 0
0 0 0 0 0 0 0 0 0 0 0 -0 -0 -0 0 0 0 0 0 0 0 0 0 0 0 1 0 1 1 0 1 0
0 0 0 0 0 0 0 0 0 0 0 -0 -0 -0 0 0 0 0 0 0 0 0 0 0 1 1 1 1 1 1 1 0
0 0 0 0 0 0 0 0 0 0 0 0 0 -0 0 0 0 0 0 0 0 0 0 1 1 1 1 1 1 1 0 0
0 0 0 0 0 0 0 0 0 -0 0 0 0 0 0 0 0 0 0 0 0 0 0 0 1 0 0 0 0 0 0 0
0 0 0 0 0 0 0 0 0 0 0 0 0 0 0 0 0 0 0 0 0 0 0 0 0 0 0 0 0 0 0 0
0 0 0 0 0 0 0 0 0 0 0 0 0 0 0 0 0 0 0 0 0 0 0 0 0 0 0 0 0 0 0 0
0 0 0 0 0 0 0 0 0 0 0 0 0 0 0 0 0 0 0 0 0 0 0 0 0 0 0 0 0 0 0 0
0 0 0 0 0 0 0 0 0 0 0 0 0 0 0 0 0 0 0 0 0 0 0 0 0 0 0 0 0 0 0 0
0 0 0 0 0 0 0 0 0 0 0 0 0 0 0 0 0 0 0 0 0 0 0 0 0 0 0 0 0 0 0 0
0 0 0 0 0 0 0 0 0 0 0 0 0 0 0 0 0 0 0 0 0 0 0 0 0 0 0 0 0 0 0 0
0 0 0 0 0 0 0 0 0 0 0 0 0 0 0 0 0 0 0 0 0 0 0 0 0 0 0 0 0 0 0 0
Wind_Speed_500mb
19 23 27 30 35 38 40 45 50 49 46 43 33 31 34 40 41 36 30 35 37 38 34 33 36 36 36 37 37 41 52 45
16 22 22 25 32 34 39 45 47 47 46 41 31 27 29 38 40 41 39 34 39 38 41 37 40 37 35 36 35 37 47 50
13 11 24 31 26 33 43 48 43 45 39 38 36 36 37 33 43 38 41 33 39 37 43 42 40 39 35 37 37 38 45 48
20 26 26 27 36 43 45 39 35 43 36 41 44 46 43 41 47 45 39 35 34 38 46 44 42 40 37 38 40 43 47 43
20 25 34 43 47 51 56 48 43 34 38 46 49 55 60 64 51 40 32 36 34 38 43 43 42 40 39 41 46 50 51 44
26 31 36 41 49 51 53 50 43 45 44 47 54 63 62 42 39 37 33 33 33 39 43 42 41 38 40 41 45 54 55 52
30 37 35 41 49 53 43 37 31 33 35 39 32 24 24 28 29 34 32 31 34 38 39 40 38 38 41 43 51 56 56 56
31 36 37 43 49 38 38 29 16 15 22 20 9 9 12 20 29 36 31 25 28 35 36 39 39 39 45 46 60 61 57 55
33 39 40 41 39 34 35 27 11 9 15 10 8 7 17 25 28 30 25 22 23 31 34 38 41 41 44 56 63 67 63 56
38 35 36 29 38 38 28 27 12 4 8 11 10 16 21 24 27 21 21 20 20 28 34 37 42 47 50 61 68 67 62 58
36 30 29 26 36 33 29 28 24 14 12 10 11 20 19 22 17 14 14 18 20 28 33 38 47 56 60 71 69 64 55 45
37 26 28 31 28 29 16 24 18 14 13 18 19 21 17 13 7 6 11 14 17 29 38 48 57 60 75 74 70 59 55 64
33 23 32 38 33 33 17 21 20 20 20 21 20 14 9 4 3 8 11 16 22 38 45 56 65 77 78 79 75 66 69 72
30 26 34 35 27 31 18 22 20 20 21 19 15 16 9 4 5 11 16 21 18 43 53 59 63 76 78 76 77 69 74 79
28 24 34 36 35 34 29 23 22 21 23 22 21 20 16 14 11 25 23 37 46 50 54 65 68 76 68 67 64 67 72 73
24 20 28 33 32 29 24 26 22 21 23 23 24 25 22 20 12 40 55 55 47 52 65 70 73 70 63 67 72 63 59 62
18 18 24 33 32 37 30 26 26 27 29 28 27 30 28 28 35 39 34 48 60 66 59 63 63 64 63 78 82 77 67 62
10 24 15 20 30 32 38 37 31 28 31 33 34 36 35 33 45 49 52 49 62 50 55 67 61 81 87 82 55 46 61 40
9 17 20 22 30 30 27 32 38 35 38 37 39 36 39 27 35 35 40 40 45 42 45 46 58 63 67 64 38 40 40 83
Wind_Direction_500mb
329 309 305 293 287 288 292 296 297 300 303 298 278 270 269 265 261 264 274 265 235 231 229 222 226 220 218 215 215 214 212 205
316 298 289 293 295 293 293 297 299 300 298 291 273 259 284 271 263 259 262 260 235 224 226 219 222 219 216 211 212 213 208 202
333 296 303 316 308 310 308 309 306 299 283 268 266 268 270 272 272 269 253 253 231 225 220 219 218 217 210 207 208 205 196 188
331 325 324 311 306 319 319 303 284 287 273 268 268 272 267 271 286 266 244 242 224 221 212 212 214 217 206 201 200 198 190 189
332 329 324 320 320 315 317 308 300 286 271 261 261 264 267 274 265 245 235 228 222 208 207 209 209 211 201 198 192 192 191 184
330 336 331 323 320 319 318 309 295 279 284 286 279 271 268 247 244 232 218 212 209 200 203 203 208 204 197 196 186 188 186 183
343 340 333 322 323 325 328 328 309 285 294 296 282 267 223 223 227 204 198 197 196 194 202 201 202 198 195 191 181 182 178 182
351 339 331 329 336 334 340 343 329 324 325 324 279 259 216 205 196 181 181 184 191 194 196 197 198 195 197 184 176 174 170 172
349 341 334 341 352 346 343 340 352 355 341 14 103 148 152 151 169 182 176 180 187 188 196 198 193 191 184 176 174 172 173 172
354 347 345 353 0 4 9 14 8 356 19 42 104 133 147 153 160 171 179 186 184 191 195 195 191 181 175 173 171 174 177 183
358 358 9 2 17 19 31 26 31 55 41 57 117 150 150 149 157 180 180 195 195 195 196 191 177 174 170 170 167 174 172 169
5 10 7 19 3 12 16 18 25 32 44 74 116 146 151 156 132 187 185 197 192 192 189 176 169 173 167 167 165 171 163 153
10 17 23 30 26 28 46 23 46 68 81 103 106 117 125 142 246 190 182 177 181 177 174 170 164 167 163 162 147 154 151 149
19 40 42 35 30 33 48 44 55 67 76 84 94 99 81 72 127 175 163 165 196 173 168 168 170 155 147 149 147 139 144 143
30 44 43 42 55 49 55 59 61 72 76 82 89 85 88 96 83 122 155 141 161 163 164 160 160 165 167 160 152 147 142 142
35 48 47 44 53 46 55 62 70 81 80 80 83 87 89 89 140 152 127 139 145 161 155 148 150 155 160 159 148 142 154 159
40 40 54 52 63 62 59 61 69 77 82 78 78 90 99 112 128 140 134 145 135 138 149 153 154 156 160 150 147 148 139 145
61 33 65 54 56 67 57 60 71 77 84 80 86 87 91 108 134 124 126 129 135 127 129 152 144 142 144 144 134 148 137 144
115 43 55 70 78 68 52 59 69 78 81 77 79 82 105 126 154 145 153 140 146 141 135 147 147 150 152 144 133 134 154 147
Wind_Speed_850mb
19 23 27 30 35 38 40 45 50 49 46 43 33 31 34 40 41 36 30 35 37 38 34 33 36 36 36 37 37 41 52 45
16 22 22 25 32 34 39 45 47 47 46 41 31 27 29 38 40 41 39 34 39 38 41 37 40 37 35 36 35 37 47 50
13 11 24 31 26 33 43 48 43 45 39 38 36 36 37 33 43 38 41 33 39 37 43 42 40 39 35 37 37 38 45 48
20 26 26 27 36 43 45 39 35 43 36 41 44 46 43 41 47 45 39 35 34 38 46 44 42 40 37 38 40 43 47 43
20 25 34 43 47 51 56 48 43 34 38 46 49 55 60 64 51 40 32 36 34 38 43 43 42 40 39 41 46 50 51 44
26 31 36 41 49 51 53 50 43 45 44 47 54 63 62 42 39 37 33 33 33 39 43 42 41 38 40 41 45 54 55 52
30 37 35 41 49 53 43 37 31 33 35 39 32 24 24 28 29 34 32 31 34 38 39 40 38 38 41 43 51 56 56 56
31 36 37 43 49 38 38 29 16 15 22 20 9 9 12 20 29 36 31 25 28 35 36 39 39 39 45 46 60 61 57 55
33 39 40 41 39 34 35 27 11 9 15 10 8 7 17 25 28 30 25 22 23 31 34 38 41 41 44 56 63 67 63 56
38 35 36 29 38 38 28 27 12 4 8 11 10 16 21 24 27 21 21 20 20 28 34 37 42 47 50 61 68 67 62 58
36 30 29 26 36 33 29 28 24 14 12 10 11 20 19 22 17 14 14 18 20 28 33 38 47 56 60 71 69 64 55 45
37 26 28 31 28 29 16 24 18 14 13 18 19 21 17 13 7 6 11 14 17 29 38 48 57 60 75 74 70 59 55 64
33 23 32 38 33 33 17 21 20 20 20 21 20 14 9 4 3 8 11 16 22 38 45 56 65 77 78 79 75 66 69 72
30 26 34 35 27 31 18 22 20 20 21 19 15 16 9 4 5 11 16 21 18 43 53 59 63 76 78 76 77 69 74 79
28 24 34 36 35 34 29 23 22 21 23 22 21 20 16 14 11 25 23 37 46 50 54 65 68 76 68 67 64 67 72 73
24 20 28 33 32 29 24 26 22 21 23 23 24 25 22 20 12 40 55 55 47 52 65 70 73 70 63 67 72 63 59 62
18 18 24 33 32 37 30 26 26 27 29 28 27 30 28 28 35 39 34 48 60 66 59 63 63 64 63 78 82 77 67 62
10 24 15 20 30 32 38 37 31 28 31 33 34 36 35 33 45 49 52 49 62 50 55 67 61 81 87 82 55 46 61 40
9 17 20 22 30 30 27 32 38 35 38 37 39 36 39 27 35 35 40 40 45 42 45 46 58 63 67 64 38 40 40 83
Wind_Direction_850mb
329 309 305 293 287 288 292 296 297 300 303 298 278 270 269 265 261 264 274 265 235 231 229 222 226 220 218 215 215 214 212 205
316 298 289 293 295 293 293 297 299 300 298 291 273 259 284 271 263 259 262 260 235 224 226 219 222 219 216 211 212 213 208 202
333 296 303 316 308 310 308 309 306 299 283 268 266 268 270 272 272 269 253 253 231 225 220 219 218 217 210 207 208 205 196 188
331 325 324 311 306 319 319 303 284 287 273 268 268 272 267 271 286 266 244 242 224 221 212 212 214 217 206 201 200 198 190 189
332 329 324 320 320 315 317 308 300 286 271 261 261 264 267 274 265 245 235 228 222 208 207 209 209 211 201 198 192 192 191 184
330 336 331 323 320 319 318 309 295 279 284 286 279 271 268 247 244 232 218 212 209 200 203 203 208 204 197 196 186 188 186 183
343 340 333 322 323 325 328 328 309 285 294 296 282 267 223 223 227 204 198 197 196 194 202 201 202 198 195 191 181 182 178 182
351 339 331 329 336 334 340 343 329 324 325 324 279 259 216 205 196 181 181 184 191 194 196 197 198 195 197 184 176 174 170 172
349 341 334 341 352 346 343 340 352 355 341 14 103 148 152 151 169 182 176 180 187 188 196 198 193 191 184 176 174 172 173 172
354 347 345 353 0 4 9 14 8 356 19 42 104 133 147 153 160 171 179 186 184 191 195 195 191 181 175 173 171 174 177 183
358 358 9 2 17 19 31 26 31 55 41 57 117 150 150 149 157 180 180 195 195 195 196 191 177 174 170 170 167 174 172 169
5 10 7 19 3 12 16 18 25 32 44 74 116 146 151 156 132 187 185 197 192 192 189 176 169 173 167 167 165 171 163 153
10 17 23 30 26 28 46 23 46 68 81 103 106 117 125 142 246 190 182 177 181 177 174 170 164 167 163 162 147 154 151 149
19 40 42 35 30 33 48 44 55 67 76 84 94 99 81 72 127 175 163 165 196 173 168 168 170 155 147 149 147 139 144 143
30 44 43 42 55 49 55 59 61 72 76 82 89 85 88 96 83 122 155 141 161 163 164 160 160 165 167 160 152 147 142 142
35 48 47 44 53 46 55 62 70 81 80 80 83 87 89 89 140 152 127 139 145 161 155 148 150 155 160 159 148 142 154 159
40 40 54 52 63 62 59 61 69 77 82 78 78 90 99 112 128 140 134 145 135 138 149 153 154 156 160 150 147 148 139 145
61 33 65 54 56 67 57 60 71 77 84 80 86 87 91 108 134 124 126 129 135 127 129 152 144 142 144 144 134 148 137 144
115 43 55 70 78 68 52 59 69 78 81 77 79 82 105 126 154 145 153 140 146 141 135 147 147 150 152 144 133 134 154 147